{"data":{"norad_id":57049,"intl_designator":"2023-088B","name":"STARLINK-5850","alt_names":[],"object_type":"PAYLOAD","status":"ACTIVE","operator":null,"country":"US","launch_date":"2023-06-22","launch_site_code":"AFWTR","launch_vehicle":null,"mission":null,"orbit_class":"UNKNOWN","rcs_meters":null,"size_class":null,"mass_kg":null,"dimensions":null,"purposes":["comms"],"wikipedia_slug":null,"has_3d_model":false,"image_url":null,"decayed_at":null,"tle_current":{"epoch":"2026-05-24T10:32:13.580448Z","epoch_age_seconds":126815,"freshness":"FRESH","line1":"1 57049U 23088B   26144.43904607  .00079447  00000+0  28988-2 0  9993","line2":"2 57049  43.0032  43.1885 0001543 177.9875 182.0983 15.27201087162109","mean_motion":15.27201087,"eccentricity":0.0001543,"inclination_deg":43.0032,"raan_deg":43.1885,"arg_perigee_deg":177.9875,"mean_anomaly_deg":182.0983,"bstar":0.0028988,"rev_number":16210,"period_min":94.290137183487,"perigee_km":483.1250763364,"apogee_km":485.24278857615,"semimajor_km":6862.3209324563,"source":"CELESTRAK","updated_at":"2026-05-25T13:38:18.207817Z"}}}